ZHONGXING-4A

Last updated on Sun Apr 12 2026 00:02:56 GMT+0000 (Coordinated Universal Time)

1 60606U 24151A 26101.49697406 -.00000363 00000+0 00000+0 0 9997 2 60606 1.4881 271.5759 0001172 119.2526 106.0047 1.00269478 6084
UTC large
Height (km)
Speed (km/s)
/
Latitude / Longitude
Inclination (degrees)
Orbital Period (minutes)
Azimuth
Elevation
Range (km)
Doppler Factor

Next 0 passes for location: London (51.5072 / 0.1276)

Sorry there are no passes over London.
ZHONGXING-4A